Sault Ste Marie, MI

5:00 PM EDT on July 22, 2017 (GMT -0400)
Sault Ste Marie Municipal / Sanderson Field

Weather History for KANJ - December, 2011

Change the Weather History Date:

Tuesday, December 6, 2011

  Actual Average Record
Temperature  
Mean Temperature 18 °F 26 °F  
Max Temperature 24 °F 32 °F 58 °F (2001)
Min Temperature 12 °F 20 °F -10 °F (1906)
Degree Days  
Heating Degree Days 47 39  
Month to date heating degree days 219 229  
Since 1 July heating degree days 1710 2161  
Moisture  
Dew Point 13 °F    
Average Humidity 73    
Maximum Humidity 84    
Minimum Humidity 62    
Precipitation  
Precipitation 0.00 in 0.10 in 0.83 in (1966)
Month to date precipitation 0.58 0.62  
Year to date precipitation 36.73 30.78  
Snow  
Snow 0.00 in 1.00 in 7.60 in (1936)
Month to date snowfall 2.1 5.9  
Since 1 July snowfall 9.0 22.6  
Snow Depth T in    
Sea Level Pressure  
Sea Level Pressure 30.23 in    
Wind  
Wind Speed 6 mph (NNW)    
Max Wind Speed 12 mph    
Max Gust Speed 16 mph    
Visibility 10 miles    
Events      
T = Trace of Precipitation, MM = Missing Value Source: NWS Daily Summary

Daily Weather History Graph

Daily Weather History Graph

Search for Another Location

Airport or City:

Trip Planner

Search our weather history database for the weather conditions in past years. The results will help you decide how hot, cold, wet, or windy it might be!

Date:

Astronomy

Dec. 06, 2011 Rise Set
Actual Time 8:05 AM EST 4:50 PM EST
Civil Twilight 7:31 AM EST 5:25 PM EST
Nautical Twilight 6:53 AM EST 6:03 PM EST
Astronomical Twilight 6:16 AM EST 6:39 PM EST
Moon 2:24 PM EST (12/6) 4:15 AM EST (12/6)
Length of Visible Light 9h 53m
Length of Day
8h 44m
Waxing Gibbous, 86% of the Moon is Illuminated
Dec 6
Waxing Gibbous
Dec 10
Full
Dec 17
Last Quarter
Dec 24
New
Jan 1
First Quarter

Hourly Weather History & Observations

Time (EST) Temp. Windchill Dew Point Humidity Pressure Visibility Wind Dir Wind Speed Gust Speed Precip Events Conditions
12:32 AM 19.4 °F 11.5 °F 12.2 °F 74% 30.33 in 10.0 mi NE 5.8 mph - N/A   Overcast
12:55 AM 19.0 °F 11.1 °F 12.0 °F 74% 30.35 in 10.0 mi ENE 5.8 mph - N/A   Overcast
1:55 AM 18.0 °F 11.1 °F 10.9 °F 74% 30.35 in 10.0 mi NE 4.6 mph - N/A   Overcast
2:52 AM 17.6 °F 8.2 °F 10.4 °F 73% 30.32 in 10.0 mi North 6.9 mph - N/A   Overcast
2:55 AM 16.0 °F 7.4 °F 10.0 °F 77% 30.35 in 10.0 mi North 5.8 mph - N/A   Overcast
3:55 AM 15.1 °F 7.7 °F 8.1 °F 74% 30.35 in 10.0 mi North 4.6 mph - N/A   Overcast
4:55 AM 15.1 °F 9.4 °F 8.1 °F 74% 30.35 in 10.0 mi NNE 3.5 mph - N/A   Overcast
5:55 AM 15.1 °F 7.7 °F 9.0 °F 77% 30.34 in 10.0 mi North 4.6 mph - N/A   Overcast
6:55 AM 12.9 °F 3.8 °F 7.0 °F 77% 30.33 in 10.0 mi North 5.8 mph - N/A   Mostly Cloudy
7:55 AM 12.9 °F 6.9 °F 7.0 °F 77% 30.34 in 10.0 mi North 3.5 mph - N/A   Scattered Clouds
8:21 AM 12.2 °F 4.3 °F 6.8 °F 79% 30.30 in 10.0 mi North 4.6 mph - N/A   Scattered Clouds
8:55 AM 12.0 °F 5.9 °F 7.0 °F 80% 30.35 in 10.0 mi North 3.5 mph - N/A   Partly Cloudy
9:55 AM 14.0 °F 5.1 °F 7.0 °F 74% 30.33 in 10.0 mi North 5.8 mph - N/A   Clear
10:31 AM 17.6 °F 10.7 °F 8.6 °F 68% 30.28 in 10.0 mi NNE 4.6 mph - N/A   Mostly Cloudy
10:40 AM 17.6 °F 9.3 °F 8.6 °F 68% 30.28 in 10.0 mi North 5.8 mph - N/A   Mostly Cloudy
10:55 AM 17.1 °F 10.0 °F 10.0 °F 74% 30.32 in 10.0 mi NNE 4.6 mph - N/A   Overcast
11:55 AM 19.9 °F 12.1 °F 15.1 °F 81% 30.28 in 10.0 mi NNW 5.8 mph - N/A   Overcast
12:55 PM 21.0 °F 11.4 °F 15.1 °F 78% 30.26 in 10.0 mi NW 8.1 mph - N/A   Overcast
1:55 PM 21.9 °F 14.5 °F 16.0 °F 78% 30.23 in 10.0 mi NW 5.8 mph - N/A   Overcast
2:26 PM 23.0 °F 15.8 °F 17.6 °F 80% 30.18 in 10.0 mi Variable 5.8 mph - N/A   Overcast
2:55 PM 24.1 °F 14.4 °F 18.0 °F 77% 30.20 in 10.0 mi NW 9.2 mph - N/A   Mostly Cloudy
3:55 PM 24.1 °F 17.0 °F 16.0 °F 71% 30.19 in 10.0 mi NNW 5.8 mph - N/A   Mostly Cloudy
4:17 PM 24.8 °F 17.9 °F 15.8 °F 69% 30.14 in 10.0 mi North 5.8 mph - N/A   Mostly Cloudy
4:55 PM 24.1 °F 18.2 °F 16.0 °F 71% 30.17 in 10.0 mi North 4.6 mph - N/A   Mostly Cloudy
5:06 PM 24.8 °F 20.5 °F 17.6 °F 74% 30.13 in 10.0 mi NNW 3.5 mph - N/A   Scattered Clouds
5:55 PM 23.0 °F - 17.1 °F 78% 30.15 in 10.0 mi Calm Calm - N/A   Mostly Cloudy
6:47 PM 23.0 °F 18.4 °F 17.6 °F 80% 30.11 in 10.0 mi South 3.5 mph - N/A   Overcast
6:55 PM 23.0 °F 18.4 °F 18.0 °F 81% 30.15 in 10.0 mi SSW 3.5 mph - N/A   Overcast
7:24 PM 24.8 °F 17.9 °F 17.6 °F 74% 30.11 in 10.0 mi West 5.8 mph - N/A   Overcast
7:55 PM 24.1 °F 16.0 °F 16.0 °F 71% 30.13 in 10.0 mi WSW 6.9 mph - N/A   Overcast
8:27 PM 24.8 °F 16.1 °F 15.8 °F 69% 30.09 in 10.0 mi WSW 8.1 mph - N/A   Overcast
8:55 PM 24.1 °F 13.7 °F 14.0 °F 65% 30.11 in 10.0 mi SW 10.4 mph - N/A   Overcast
9:55 PM 23.0 °F 12.4 °F 14.0 °F 68% 30.09 in 10.0 mi WSW 10.4 mph - N/A   Overcast
10:55 PM 24.1 °F 18.2 °F 15.1 °F 69% 30.06 in 10.0 mi SW 4.6 mph - N/A   Overcast
11:55 PM 23.0 °F 17.0 °F 15.1 °F 72% 30.04 in 10.0 mi SSW 4.6 mph - N/A   Overcast